This demonstration page uses our WeatherBlox Daily Observations layout. Learn more.

Left ArrowRight Arrow

44.8408, -93.29828

Hourly Observations for July 2, 2021

Temp ( °F °C ) Dew Point ( °F °C ) Humidity (%) Winds ( mph kmh ) Pressure ( in mb ) Visibility ( mi km ) Precip ( " mm )
12:53 am 00:53 Clear 71 21.7 50 10 47 47 ENE 7 11 30.11 1020 10 16 0.00 0.00
1:53 am 01:53 Clear 69 20.6 51 10.6 53 53 ENE 6 9 30.12 1020 10 16 0.00 0.00
2:53 am 02:53 Clear 67 19.4 51 10.6 57 57 ENE 5 7 30.12 1020 10 16 0.00 0.00
3:53 am 03:53 Clear 66 18.9 50 10 56 56 NE 3 6 30.11 1020 10 16 0.00 0.00
4:53 am 04:53 Partly Cloudy 64 17.8 49 9.4 58 58 NE 3 6 30.12 1020 10 16 0.00 0.00
5:53 am 05:53 Mostly Sunny 62 16.7 50 10 65 65 NE 3 6 30.14 1021 10 16 0.00 0.00
6:53 am 06:53 Mostly Sunny 64 17.8 49 9.4 58 58 ENE 6 9 30.14 1021 10 16 0.00 0.00
7:53 am 07:53 Mostly Sunny 66 18.9 50 10 56 56 VRB 5 7 30.14 1021 10 16 0.00 0.00
8:53 am 08:53 Mostly Sunny 71 21.7 50 10 47 47 VRB 3 6 30.16 1021 10 16 0.00 0.00
9:53 am 09:53 Mostly Sunny 74 23.3 47 8.3 38 38 ENE 5 7 30.16 1021 10 16 0.00 0.00
10:53 am 10:53 Mostly Sunny 78 25.6 44 6.7 30 30 Calm 30.15 1021 10 16 0.00 0.00
11:53 am 11:53 Mostly Sunny 81 27.2 41 5 24 24 Calm 30.14 1021 10 16 0.00 0.00
12:53 pm 12:53 Mostly Sunny 82 27.8 49 9.4 32 32 Calm 30.12 1020 10 16 0.00 0.00
1:53 pm 13:53 Mostly Sunny 83 28.3 51 10.6 33 33 VRB 5 7 30.10 1019 10 16 0.00 0.00
2:53 pm 14:53 Mostly Sunny 85 29.4 53 11.7 33 33 E 8 13 30.09 1019 10 16 0.00 0.00
3:53 pm 15:53 Mostly Sunny 84 28.9 54 12.2 36 36 S 7 11 30.07 1018 10 16 0.00 0.00
4:53 pm 16:53 Mostly Sunny 85 29.4 53 11.7 33 33 ESE 5 7 30.06 1018 10 16 0.00 0.00
5:53 pm 17:53 Sunny 85 29.4 53 11.7 33 33 VRB 3 6 30.04 1017 10 16 0.00 0.00
6:53 pm 18:53 Sunny 84 28.9 53 11.7 34 34 SSE 6 9 30.04 1017 10 16 0.00 0.00
7:53 pm 19:53 Sunny 83 28.3 55 12.8 38 38 S 8 13 30.05 1018 10 16 0.00 0.00
8:53 pm 20:53 Mostly Sunny 81 27.2 55 12.8 41 41 S 7 11 30.06 1018 10 16 0.00 0.00
9:53 pm 21:53 Mostly Clear 79 26.1 56 13.3 45 45 WSW 6 9 30.04 1017 10 16 0.00 0.00
10:53 pm 22:53 Mostly Clear 77 25 57 13.9 50 50 WSW 6 9 30.03 1017 10 16 0.00 0.00
11:53 pm 23:53 Clear 76 24.4 56 13.3 50 50 W 5 7 30.03 1017 10 16 0.00 0.00

Powered by AerisWeather